Wind_Speed
12 12 12 12 13 13 13 14 14 14 14 13 14 14 14 14 14 14 14 14 14 14 14 14 15 15 16 16 15 16 17 18 19 18 19 19 19 20
13 13 13 13 14 15 15 15 16 16 14 15 15 15 15 15 15 15 15 15 15 16 15 15 15 15 16 16 18 19 19 19 20 20 20 20 20 21
14 14 14 15 15 16 17 17 17 17 17 17 18 18 18 18 18 18 18 18 18 17 17 17 17 17 17 18 18 18 19 20 21 22 22 22 22 22
15 16 16 17 17 18 18 19 19 19 19 19 19 19 20 20 21 20 20 21 21 20 19 18 18 18 19 19 19 19 20 20 20 21 22 24 25 25
17 17 17 17 17 18 19 20 20 21 21 21 21 21 21 22 22 22 22 22 22 22 21 21 21 21 21 21 21 21 21 22 22 22 23 23 25 25
19 19 19 18 18 19 20 21 21 22 22 22 22 22 23 24 24 24 24 24 23 22 22 22 23 23 23 22 22 23 23 24 23 23 24 24 24 25
19 19 19 19 20 21 22 22 22 22 23 23 24 24 24 25 25 25 25 24 24 24 23 23 23 23 23 23 23 24 24 24 24 24 25 25 25 26
20 20 20 22 22 23 24 25 24 24 25 25 25 25 25 25 25 25 25 25 25 25 25 25 24 25 25 25 24 24 25 25 26 26 26 27 26 26
22 23 23 24 24 25 25 25 25 25 25 25 25 26 26 26 26 25 25 26 25 25 26 25 26 25 25 25 25 25 25 26 26 27 27 27 27 27
23 24 24 25 25 26 26 26 26 26 27 27 27 27 27 27 27 26 27 27 26 26 27 26 26 26 26 26 26 26 26 27 27 26 27 28 28 28
25 26 26 27 27 28 28 27 27 27 27 28 28 28 27 27 27 27 27 27 26 27 27 27 28 28 27 27 27 28 28 28 28 28 27 27 28 28
27 28 28 29 29 29 29 29 29 28 29 29 29 28 28 27 27 27 27 27 27 27 27 28 28 28 28 28 28 28 28 29 29 29 28 28 29 29
30 30 30 30 31 31 31 31 30 30 29 29 28 28 29 28 28 28 28 28 29 29 28 28 28 28 29 28 28 28 29 29 29 29 29 29 30 30
30 31 31 31 32 32 32 31 30 30 29 28 28 28 28 28 28 28 29 29 29 29 29 28 28 29 29 28 27 27 28 29 30 30 30 30 30 31
31 31 31 30 31 31 31 30 30 30 30 29 28 28 28 28 28 28 28 28 28 29 29 29 29 28 27 27 27 27 28 29 30 30 30 30 30 31
30 30 31 31 30 30 29 29 29 30 29 28 27 27 28 28 28 28 28 29 28 28 28 28 29 28 27 27 27 28 28 29 29 30 30 30 31 31
31 31 31 31 30 30 29 29 29 29 28 28 28 28 27 28 28 29 29 29 29 29 28 28 29 29 28 28 29 29 29 30 30 30 30 30 30 30
30 29 30 30 30 29 28 28 27 27 27 28 28 28 28 28 28 29 30 30 30 29 29 29 30 30 30 30 31 30 30 30 31 32 31 30 30 30
29 29 29 29 29 28 28 28 28 28 28 28 29 29 29 29 29 29 30 30 30 30 30 30 30 30 30 31 31 31 30 30 31 31 31 30 30 30
29 29 28 28 28 28 28 29 29 29 29 29 29 29 29 29 30 29 30 30 30 30 30 30 31 31 31 31 31 31 31 31 30 30 29 29 30 29
29 29 28 28 28 29 29 30 30 30 30 30 30 29 29 30 30 29 29 30 30 30 30 31 32 32 32 32 31 31 30 30 30 30 29 29 29 29
29 29 29 29 29 30 30 30 30 30 30 30 30 30 30 30 30 29 29 29 30 29 30 30 31 32 32 32 31 31 31 31 31 31 31 31 31 30
29 29 29 29 30 30 30 31 30 30 30 30 30 30 30 30 30 29 29 29 29 29 29 30 30 30 30 31 32 32 31 31 32 32 32 33 32 32
Wind_Direction
304 305 304 300 298 298 298 299 300 300 298 298 303 304 301 301 299 299 293 288 285 281 277 276 276 273 267 260 260 258 258 258 257 256 255 253 253 251
303 303 301 302 303 301 299 298 299 299 296 295 296 298 298 297 297 296 292 288 286 283 279 277 276 275 271 264 261 261 260 258 256 256 255 258 257 254
304 302 298 295 298 298 297 295 296 295 293 294 295 295 296 296 296 293 290 288 286 284 279 275 274 272 270 267 265 265 263 261 259 257 256 256 258 255
304 306 303 296 296 296 296 295 295 294 292 293 294 294 294 295 296 294 292 290 287 282 279 277 274 273 271 268 266 266 265 263 260 260 260 259 258 256
303 303 302 299 299 298 298 295 294 294 293 293 293 294 294 294 295 294 292 289 284 278 277 276 273 273 273 269 267 267 267 265 263 262 263 262 260 259
301 300 299 299 299 299 299 297 296 295 295 293 293 293 292 293 292 291 289 286 281 276 275 274 274 273 272 270 269 267 268 267 265 264 263 264 261 261
300 300 299 298 300 298 296 296 295 297 298 296 293 292 292 292 290 289 288 286 281 276 275 274 273 272 271 269 269 267 267 267 266 264 265 264 262 261
298 301 303 301 299 298 297 296 295 296 296 296 295 293 291 290 288 287 287 285 283 278 276 273 272 271 270 271 270 268 267 266 265 265 264 263 262 262
296 296 298 299 299 297 297 297 296 295 295 295 295 294 292 290 290 288 286 284 283 281 277 273 271 271 271 270 271 270 269 267 266 266 265 264 263 261
294 293 294 296 296 295 295 295 294 294 294 294 294 293 291 289 288 287 285 282 281 281 278 276 273 272 272 270 271 269 268 268 268 268 266 264 263 261
294 293 293 293 294 294 293 293 292 293 293 292 293 293 291 289 288 287 285 283 282 281 278 276 274 273 273 272 272 269 267 267 268 269 268 263 262 262
294 294 294 294 293 292 292 292 292 292 292 292 292 291 291 288 286 285 284 283 283 281 279 278 275 273 273 273 272 269 266 266 268 269 269 267 264 262
296 295 295 295 293 292 291 291 291 290 290 291 291 291 290 287 284 283 283 283 283 282 280 280 277 273 271 271 270 269 267 267 267 268 268 268 265 262
297 296 295 294 293 292 292 292 292 290 289 288 289 290 289 287 285 285 285 284 282 281 280 278 276 274 272 269 270 269 268 268 268 268 267 266 266 263
299 297 297 296 296 295 293 292 291 290 289 288 288 288 288 287 286 286 285 284 283 281 280 279 276 274 273 270 268 268 268 268 268 267 267 267 265 264
298 298 298 297 297 296 294 293 293 292 291 291 291 289 288 288 287 286 285 285 284 282 280 278 275 274 274 273 270 269 268 267 267 267 267 266 264 263
298 297 297 296 296 296 294 294 294 295 295 293 293 292 291 290 289 287 286 285 284 282 280 279 276 274 273 273 273 273 271 268 267 267 266 265 265 265
297 296 295 296 298 297 296 296 295 295 295 294 294 293 290 289 288 288 286 284 283 281 280 278 276 275 274 274 276 274 273 271 269 269 268 265 265 265
296 296 296 296 297 296 296 296 296 296 295 295 295 294 291 289 287 287 286 284 283 281 280 278 276 276 274 274 274 274 274 272 270 270 267 266 266 266
296 294 295 296 297 298 298 298 297 296 295 295 295 294 293 291 289 288 286 284 282 281 278 276 276 276 275 274 272 272 274 273 270 269 267 266 267 267
296 294 295 297 297 298 298 298 297 296 295 295 294 293 292 292 291 290 288 286 283 280 278 276 276 275 274 272 272 273 273 272 271 269 267 267 266 266
295 296 297 298 298 298 298 298 297 297 296 296 294 293 292 292 292 292 290 288 285 282 280 278 277 276 275 273 272 272 271 270 270 269 268 267 266 265
296 297 298 300 300 299 298 298 297 296 296 296 295 293 292 291 291 291 290 289 287 283 281 280 280 278 276 275 273 272 270 268 267 267 267 267 266 265
Height
5862 5860 5859 5858 5856 5855 5854 5852 5852 5850 5848 5846 5845 5843 5841 5839 5837 5835 5834 5832 5831 5830 5829 5828 5828 5827 5827 5826 5826 5826 5826 5826 5827 5827 5827 5828 5828 5829
5859 5857 5855 5854 5852 5851 5849 5848 5846 5845 5844 5842 5840 5839 5837 5835 5833 5831 5829 5828 5827 5826 5825 5824 5823 5823 5822 5822 5822 5821 5821 5821 5822 5822 5822 5822 5822 5823
5854 5853 5851 5850 5848 5846 5844 5843 5841 5840 5839 5837 5835 5833 5832 5830 5828 5826 5824 5823 5821 5820 5819 5819 5818 5818 5817 5817 5817 5816 5816 5816 5816 5816 5816 5817 5817 5817
5850 5848 5846 5844 5843 5841 5839 5838 5836 5834 5833 5831 5830 5828 5826 5824 5822 5821 5819 5817 5815 5815 5813 5813 5813 5812 5812 5811 5811 5811 5810 5810 5810 5810 5810 5810 5811 5811
5845 5844 5841 5839 5837 5836 5834 5832 5830 5828 5826 5825 5824 5822 5820 5818 5817 5815 5813 5811 5809 5808 5808 5807 5806 5806 5805 5805 5805 5805 5804 5804 5804 5804 5804 5804 5804 5804
5840 5838 5836 5834 5832 5830 5829 5827 5824 5822 5820 5818 5817 5815 5814 5812 5810 5808 5806 5804 5802 5801 5801 5800 5799 5799 5798 5798 5798 5798 5798 5798 5797 5797 5797 5797 5797 5798
5835 5832 5830 5828 5826 5824 5823 5821 5818 5816 5814 5812 5810 5808 5807 5804 5803 5800 5799 5797 5796 5794 5793 5793 5792 5791 5791 5791 5791 5790 5790 5790 5790 5790 5790 5790 5790 5790
5829 5827 5824 5822 5820 5818 5816 5814 5811 5809 5807 5805 5802 5801 5799 5797 5795 5793 5791 5790 5789 5788 5786 5785 5784 5784 5783 5783 5782 5782 5782 5782 5782 5782 5782 5782 5782 5782
5822 5820 5818 5816 5814 5811 5809 5807 5804 5802 5800 5797 5795 5793 5791 5789 5787 5785 5784 5782 5781 5779 5778 5777 5777 5776 5775 5775 5774 5774 5774 5773 5773 5773 5773 5773 5773 5773
5815 5813 5811 5809 5806 5804 5802 5800 5797 5795 5792 5790 5787 5785 5783 5780 5778 5777 5775 5774 5772 5771 5769 5769 5769 5768 5767 5766 5766 5765 5765 5765 5765 5764 5764 5764 5764 5764
5808 5806 5804 5801 5799 5796 5794 5791 5789 5787 5784 5782 5779 5777 5774 5772 5770 5768 5766 5765 5764 5763 5761 5760 5760 5759 5758 5758 5757 5757 5757 5756 5756 5756 5755 5755 5755 5755
5801 5798 5795 5793 5790 5787 5785 5783 5781 5778 5776 5773 5771 5768 5766 5763 5761 5759 5758 5756 5755 5754 5753 5751 5750 5750 5749 5749 5748 5748 5748 5748 5747 5746 5746 5746 5746 5746
5793 5790 5787 5784 5781 5779 5776 5774 5771 5769 5766 5764 5761 5759 5757 5755 5752 5751 5749 5747 5746 5744 5743 5742 5741 5740 5739 5739 5739 5739 5738 5738 5738 5737 5737 5736 5736 5737
5784 5781 5778 5775 5772 5770 5767 5764 5762 5759 5757 5755 5753 5750 5748 5746 5744 5742 5740 5738 5736 5735 5734 5733 5732 5731 5730 5730 5730 5729 5729 5728 5728 5728 5727 5727 5727 5726
5774 5771 5769 5766 5763 5760 5758 5755 5752 5749 5747 5745 5744 5741 5739 5737 5735 5733 5731 5729 5727 5726 5724 5723 5723 5721 5721 5720 5720 5720 5719 5719 5718 5718 5718 5717 5717 5717
5766 5763 5760 5757 5754 5752 5749 5746 5743 5740 5737 5736 5734 5732 5729 5727 5725 5723 5722 5720 5719 5717 5716 5714 5713 5712 5711 5711 5711 5710 5709 5709 5709 5708 5708 5707 5707 5707
5757 5754 5751 5748 5746 5743 5740 5737 5735 5732 5729 5727 5725 5723 5720 5718 5716 5714 5712 5711 5709 5708 5707 5706 5704 5703 5702 5701 5701 5700 5700 5699 5698 5698 5697 5697 5697 5696
5748 5746 5743 5740 5737 5735 5732 5729 5726 5724 5721 5719 5716 5714 5711 5709 5706 5704 5702 5701 5699 5698 5697 5696 5695 5694 5693 5692 5691 5690 5690 5689 5688 5688 5687 5686 5686 5686
5740 5738 5735 5732 5729 5726 5723 5721 5718 5716 5713 5710 5707 5705 5702 5699 5697 5695 5693 5691 5689 5688 5686 5685 5684 5684 5683 5682 5681 5680 5679 5678 5678 5677 5676 5676 5676 5676
5732 5729 5726 5724 5721 5718 5715 5712 5709 5707 5704 5701 5698 5696 5693 5690 5688 5685 5683 5681 5679 5677 5676 5675 5674 5673 5673 5672 5671 5670 5668 5668 5667 5667 5667 5666 5666 5666
5723 5721 5718 5715 5712 5709 5706 5703 5700 5697 5694 5692 5689 5686 5683 5681 5678 5675 5673 5671 5669 5667 5666 5665 5663 5662 5661 5661 5660 5660 5658 5657 5657 5656 5656 5656 5656 5656
5714 5712 5709 5706 5703 5700 5697 5694 5691 5688 5685 5682 5679 5676 5674 5671 5668 5666 5663 5661 5659 5657 5655 5654 5652 5651 5650 5650 5649 5649 5648 5647 5646 5646 5646 5646 5645 5646
5706 5703 5700 5697 5694 5691 5688 5685 5682 5679 5676 5673 5670 5667 5664 5662 5659 5656 5654 5651 5649 5647 5646 5644 5642 5640 5639 5639 5638 5637 5637 5636 5636 5635 5635 5634 5634 5635